Other Surface Observations
Issued by NWS Jacksonville, FL

Current Version | Previous Version | Text Only | Print | Product List | Glossary On
Versions: 1 2 3 4 5 6 7 8 9 10 11 12 13 14 15 16 17 18 19 20 21 22 23 24 25 26 27 28 29 30 31 32 33 34 35 36 37 38 39 40 41 42 43 44 45 46 47 48 49 50
000
SXUS52 KJAX 291113
OSOJAX
OTHER SURFACE OBSERVATIONS
NATIONAL WEATHER SERVICE JACKSONVILLE FL
700 AM EDT FRI MAY 29 2015

FLZ020>025-030>033-035>038-040-291200-
...FLORIDA...

CITY           SKY/WX    TMP DP  RH WIND       PRES   REMARKS
CECIL FIELD    CLEAR     59  57  94 CALM      30.12R
HERLONG FIELD  NOT AVBL
FERNANDINA BCH NOT AVBL
LAKE CITY      FAIR      61  61 100 CALM      30.12R
JUNIPER SPGS   NOT AVBL
BUNNELL        NOT AVBL
KEYSTONE HGTS  PTSUNNY   66  64  94 E3        30.12R
$$

GAZ132>136-149>154-162>166-291200-
...GEORGIA...

CITY           SKY/WX    TMP DP  RH WIND       PRES   REMARKS
JESUP          FAIR      64  63  94 CALM      30.15R
HOMERVILLE     FAIR      61  59  94 CALM      30.15R
SWAINSBORO     FAIR     N/A N/A N/A CALM      30.19R
CORDELE        NOT AVBL
EASTMAN        FAIR      62  62 100 CALM      30.20R FOG
$$

PLEASE NOTE:  THESE OBSERVATIONS ARE NOT QUALITY CONTROLLED AND MAY
NOT BE AVAILABLE AT ALL TIMES.
$$



USA.gov is the U.S. government's official web portal to all federal, state and local government web resources and services.